Weather History for Denver, CO

Change the Weather History Date:

Wednesday, December 28, 2011

  Actual Average (KDEN) Record (KDEN)
Temperature  
Mean Temperature 39 °F 30 °F  
Max Temperature 48 °F 43 °F 65 °F (1886)
Min Temperature 30 °F 17 °F -12 °F (1983)
Degree Days  
Heating Degree Days 26 35  
Month to date heating degree days 982  
Since 1 July heating degree days 2364  
Cooling Degree Days 0 0  
Month to date cooling degree days 0  
Year to date cooling degree days 769  
Moisture  
Dew Point 18 °F    
Average Humidity 48    
Maximum Humidity 70    
Minimum Humidity 33    
Precipitation  
Precipitation 0.00 in 0.01 in 0.54 in (1987)
Month to date precipitation 0.32  
Year to date precipitation 14.27  
Snow  
Snow 0.00 in - - ()
Month to date snowfall  
Since 1 July snowfall  
Snow Depth -    
Sea Level Pressure  
Sea Level Pressure 30.01 in    
Wind  
Wind Speed 11 mph (WSW)    
Max Wind Speed 22 mph    
Max Gust Speed -    
Visibility 10 miles    
Events      
T = Trace of Precipitation, MM = Missing Value Source: NWS Daily Summary

Daily Weather History Graph

Daily Weather History Graph

Search for Another Location

Airport:

Trip Planner

Search our weather history database for the weather conditions in past years. The results will help you decide how hot, cold, wet, or windy it might be!

Date:

Astronomy

Dec. 28, 2011 Rise Set
Actual Time 7:18 AM MST 4:40 PM MST
Civil Twilight 6:48 AM MST 5:11 PM MST
Nautical Twilight 6:14 AM MST 5:45 PM MST
Astronomical Twilight 5:41 AM MST 6:18 PM MST
Moon 9:46 AM MST (12/28) 9:19 PM MST (12/28)
Length of Visible Light 10h 23m
Length of Day
9h 22m
Waxing Crescent, 18% of the Moon is Illuminated
Dec 28
Waxing Crescent
Dec 31
First Quarter
Jan 9
Full
Jan 16
Last Quarter
Jan 23
New

Hourly Weather History & Observations

Time (MST) Temp. Windchill Dew Point Humidity Pressure Visibility Wind Dir Wind Speed Gust Speed Precip Events Conditions
12:04 AM 30.2 °F 21.3 °F 12.2 °F 47% 30.05 in 10.0 mi SW 10.4 mph - N/A   Clear
12:24 AM 30.2 °F 21.3 °F 10.4 °F 44% 30.04 in 10.0 mi WSW 10.4 mph - N/A   Clear
12:43 AM 30.2 °F 20.8 °F 12.2 °F 47% 30.04 in 10.0 mi SW 11.5 mph - N/A   Clear
1:03 AM 32.0 °F 23.6 °F 10.4 °F 41% 30.02 in 10.0 mi SW 10.4 mph - N/A   Clear
1:23 AM 32.0 °F 23.0 °F 10.4 °F 41% 30.02 in 10.0 mi SW 11.5 mph - N/A   Clear
1:44 AM 32.0 °F 23.6 °F 12.2 °F 44% 30.03 in 10.0 mi SW 10.4 mph - N/A   Clear
2:04 AM 30.2 °F 21.9 °F 12.2 °F 47% 30.04 in 10.0 mi SW 9.2 mph - N/A   Clear
2:24 AM 32.0 °F 24.2 °F 10.4 °F 41% 30.04 in 10.0 mi SW 9.2 mph - N/A   Clear
2:43 AM 32.0 °F 24.2 °F 10.4 °F 41% 30.05 in 10.0 mi SW 9.2 mph - N/A   Clear
3:03 AM 32.0 °F 23.6 °F 10.4 °F 41% 30.06 in 10.0 mi WSW 10.4 mph - N/A   Clear
3:23 AM 30.2 °F 21.3 °F 12.2 °F 47% 30.05 in 10.0 mi WSW 10.4 mph - N/A   Clear
3:44 AM 30.2 °F 22.6 °F 10.4 °F 44% 30.05 in 10.0 mi WSW 8.1 mph - N/A   Clear
4:03 AM 32.0 °F 24.8 °F 10.4 °F 41% 30.04 in 10.0 mi WSW 8.1 mph - N/A   Clear
4:24 AM 32.0 °F 24.8 °F 10.4 °F 41% 30.04 in 10.0 mi WSW 8.1 mph - N/A   Clear
4:44 AM 32.0 °F 24.2 °F 10.4 °F 41% 30.04 in 10.0 mi WSW 9.2 mph - N/A   Clear
5:04 AM 32.0 °F 24.8 °F 10.4 °F 41% 30.03 in 10.0 mi West 8.1 mph - N/A   Clear
5:24 AM 32.0 °F 24.2 °F 10.4 °F 41% 30.04 in 10.0 mi West 9.2 mph - N/A   Clear
5:44 AM 32.0 °F 23.6 °F 12.2 °F 44% 30.04 in 10.0 mi WSW 10.4 mph - N/A   Clear
6:04 AM 30.2 °F 21.3 °F 12.2 °F 47% 30.04 in 10.0 mi SW 10.4 mph - N/A   Clear
6:24 AM 32.0 °F 24.2 °F 12.2 °F 44% 30.03 in 10.0 mi SW 9.2 mph - N/A   Clear
6:44 AM 32.0 °F 23.0 °F 12.2 °F 44% 30.03 in 10.0 mi SSW 11.5 mph - N/A   Clear
7:24 AM 32.0 °F 24.2 °F 10.4 °F 41% 30.02 in 10.0 mi SW 9.2 mph - N/A   Clear
7:43 AM 33.8 °F 27.0 °F 8.6 °F 35% 30.03 in 10.0 mi SSW 8.1 mph - N/A   Clear
7:55 AM 30.2 °F 21.9 °F 10.4 °F 44% 30.03 in 50.0 mi South 9.2 mph - N/A   Scattered Clouds
8:04 AM 30.2 °F 20.8 °F 12.2 °F 47% 30.03 in 10.0 mi SSW 11.5 mph - N/A   Clear
8:43 AM 32.0 °F 24.8 °F 17.6 °F 55% 30.03 in 10.0 mi South 8.1 mph - N/A   Clear
8:50 AM 30.2 °F 20.8 °F 17.6 °F 60% 30.03 in 50.0 mi South 11.5 mph - N/A   Mostly Cloudy
9:04 AM 33.8 °F 25.8 °F 19.4 °F 56% 30.03 in 10.0 mi South 10.4 mph - N/A   Clear
9:24 AM 32.0 °F 23.0 °F 19.4 °F 60% 30.03 in 10.0 mi SSW 11.5 mph - N/A   Clear
9:44 AM 35.6 °F 28.0 °F 19.4 °F 52% 30.02 in 10.0 mi SSW 10.4 mph - N/A   Clear
9:50 AM 39.2 °F 32.0 °F 14.0 °F 36% 30.02 in 50.0 mi SW 11.5 mph - N/A   Mostly Cloudy
10:04 AM 39.2 °F 31.6 °F 17.6 °F 42% 30.02 in 10.0 mi WSW 12.7 mph - N/A   Clear
10:24 AM 41.0 °F 33.9 °F 14.0 °F 33% 30.01 in 10.0 mi WSW 12.7 mph - N/A   Clear
10:44 AM 41.0 °F 34.7 °F 17.6 °F 39% 30.00 in 10.0 mi WSW 10.4 mph - N/A   Clear
11:04 AM 42.8 °F 35.4 °F 17.6 °F 36% 29.97 in 10.0 mi WSW 15.0 mph - N/A   Clear
11:24 AM 44.6 °F 39.2 °F 21.2 °F 39% 29.97 in 10.0 mi WSW 10.4 mph - N/A   Clear
11:43 AM 44.6 °F 38.4 °F 21.2 °F 39% 29.96 in 10.0 mi SW 12.7 mph - N/A   Clear
11:50 AM 44.6 °F 37.4 °F 19.4 °F 37% 29.95 in 50.0 mi SW 16.1 mph - N/A   Mostly Cloudy
12:04 PM 44.6 °F 37.8 °F 19.4 °F 37% 29.95 in 10.0 mi WSW 15.0 mph - N/A   Clear
12:23 PM 44.6 °F 38.1 °F 19.4 °F 37% 29.95 in 10.0 mi WSW 13.8 mph - N/A   Clear
12:44 PM 46.4 °F 40.7 °F 23.0 °F 40% 29.94 in 10.0 mi West 12.7 mph - N/A   Clear
12:50 PM 48.2 °F - 23.0 °F 37% 29.94 in 50.0 mi West 15.0 mph - N/A   Scattered Clouds
1:04 PM 44.6 °F 37.2 °F 26.6 °F 49% 29.93 in 10.0 mi West 17.3 mph - N/A   Clear
1:24 PM 46.4 °F 40.1 °F 26.6 °F 46% 29.93 in 10.0 mi West 15.0 mph - N/A   Clear
1:44 PM 44.6 °F 36.1 °F 26.6 °F 49% 29.93 in 10.0 mi West 21.9 mph - N/A   Clear
2:04 PM 44.6 °F 37.4 °F 24.8 °F 46% 29.96 in 10.0 mi West 16.1 mph - N/A   Clear
2:44 PM 42.8 °F 36.2 °F 26.6 °F 53% 29.97 in 10.0 mi West 12.7 mph - N/A   Clear
2:50 PM 44.6 °F 38.8 °F 24.8 °F 46% 29.97 in 50.0 mi WNW 11.5 mph - N/A   Mostly Cloudy
3:04 PM 42.8 °F 37.5 °F 26.6 °F 53% 29.97 in 10.0 mi NW 9.2 mph - N/A   Clear
3:23 PM 41.0 °F 33.5 °F 26.6 °F 57% 29.98 in 10.0 mi WNW 13.8 mph - N/A   Clear
3:44 PM 41.0 °F 33.9 °F 26.6 °F 57% 29.99 in 10.0 mi WNW 12.7 mph - N/A   Clear
4:04 PM 39.2 °F 31.2 °F 26.6 °F 61% 30.00 in 10.0 mi West 13.8 mph - N/A   Clear
4:23 PM 37.4 °F 29.3 °F 28.4 °F 70% 30.00 in 10.0 mi West 12.7 mph - N/A   Clear
4:44 PM 37.4 °F 29.8 °F 26.6 °F 65% 30.00 in 10.0 mi West 11.5 mph - N/A   Clear
5:04 PM 37.4 °F 29.8 °F 26.6 °F 65% 29.99 in 10.0 mi WSW 11.5 mph - N/A   Clear
5:23 PM 37.4 °F 29.3 °F 26.6 °F 65% 30.00 in 10.0 mi West 12.7 mph - N/A   Clear
5:44 PM 41.0 °F 35.2 °F 26.6 °F 57% 30.00 in 10.0 mi WNW 9.2 mph - N/A   Clear
6:04 PM 41.0 °F 37.1 °F 24.8 °F 53% 30.01 in 10.0 mi West 5.8 mph - N/A   Clear
6:24 PM 37.4 °F 33.8 °F 26.6 °F 65% 30.01 in 10.0 mi West 4.6 mph - N/A   Clear
6:44 PM 39.2 °F 33.0 °F 23.0 °F 52% 30.01 in 10.0 mi West 9.2 mph - N/A   Clear
7:04 PM 37.4 °F 29.3 °F 24.8 °F 60% 30.01 in 10.0 mi West 12.7 mph - N/A   Clear
7:24 PM 37.4 °F 28.5 °F 26.6 °F 65% 30.01 in 10.0 mi WSW 15.0 mph - N/A   Clear
7:44 PM 41.0 °F 33.5 °F 26.6 °F 57% 30.00 in 10.0 mi WSW 13.8 mph - N/A   Clear
8:04 PM 42.8 °F 35.8 °F 26.6 °F 53% 30.00 in 10.0 mi WSW 13.8 mph - N/A   Clear
8:24 PM 42.8 °F 35.8 °F 26.6 °F 53% 29.99 in 10.0 mi WSW 13.8 mph - N/A   Clear
9:02 PM 42.8 °F 34.3 °F 28.4 °F 57% 29.98 in 10.0 mi West 19.6 mph - N/A   Clear
9:23 PM 41.0 °F 32.5 °F 28.4 °F 61% 29.98 in 10.0 mi West 17.3 mph - N/A   Clear
9:43 PM 42.8 °F 34.3 °F 28.4 °F 57% 29.99 in 10.0 mi West 19.6 mph - N/A   Clear
10:03 PM 42.8 °F 34.5 °F 28.4 °F 57% 29.98 in 10.0 mi West 18.4 mph - N/A   Clear
10:23 PM 41.0 °F 32.2 °F 28.4 °F 61% 29.97 in 10.0 mi West 18.4 mph - N/A   Clear
10:42 PM 44.6 °F 37.2 °F 28.4 °F 53% 29.97 in 10.0 mi WNW 17.3 mph - N/A   Clear
11:03 PM 42.8 °F 34.3 °F 28.4 °F 57% 29.96 in 10.0 mi West 19.6 mph - N/A   Clear
11:24 PM 42.8 °F 35.1 °F 28.4 °F 57% 29.96 in 10.0 mi WSW 16.1 mph - N/A   Clear